RA02468 USHQ-USHI

Flight info

Callsign RA02468
Flight time N/A
Altitude 1000
Route LOCALITY POLNOVAT / USHB / ALONG RIVER OB
Aircraft C182/L-VGD/A

Departure

Time 2026-05-05 16:47
Airport Beloyarskiy Airport (USHQ)

Arrival

Time N/A
Airport Igrim Airport (USHI)
Time Latitude Longitude Altitude Speed Heading
2026-05-05 16:30 63.69507 66.69581 82 ft 0 kts 92°
2026-05-05 16:34 63.69507 66.69586 82 ft 0 kts 91°
2026-05-05 16:40 63.69507 66.69594 82 ft 5 kts 89°
2026-05-05 16:40 63.69461 66.69663 82 ft 14 kts 187°
2026-05-05 16:40 63.69326 66.69653 82 ft 24 kts 183°
2026-05-05 16:41 63.69185 66.69636 82 ft 16 kts 181°
2026-05-05 16:41 63.69096 66.69639 82 ft 8 kts 136°
2026-05-05 16:41 63.69085 66.69751 82 ft 0 kts 90°
2026-05-05 16:42 63.69085 66.69784 82 ft 6 kts 92°
2026-05-05 16:43 63.69083 66.69952 82 ft 15 kts 82°
2026-05-05 16:43 63.69121 66.70011 81 ft 0 kts 358°
2026-05-05 16:44 63.69135 66.70029 83 ft 0 kts
2026-05-05 16:46 63.69178 66.70037 81 ft 22 kts 359°
2026-05-05 16:46 63.69505 66.70059 111 ft 65 kts 359°
2026-05-05 16:46 63.69968 66.70074 307 ft 71 kts
2026-05-05 16:47 63.70482 66.70184 510 ft 77 kts
2026-05-05 16:47 63.71043 66.70265 713 ft 86 kts 346°
2026-05-05 16:47 63.71518 66.69266 836 ft 101 kts 308°
2026-05-05 16:47 63.72025 66.68037 979 ft 112 kts 307°
2026-05-05 16:48 63.72550 66.66686 1105 ft 118 kts 304°
2026-05-05 16:48 63.73077 66.65188 1137 ft 127 kts 302°
2026-05-05 16:48 63.73444 66.64131 1136 ft 131 kts 302°
2026-05-05 16:48 63.74100 66.61836 1132 ft 129 kts 287°
2026-05-05 16:49 63.74326 66.60594 1133 ft 129 kts 287°
2026-05-05 16:49 63.74697 66.58735 1130 ft 129 kts 284°
2026-05-05 16:49 63.74955 66.56796 1132 ft 129 kts 281°
2026-05-05 16:49 63.75215 66.54830 1085 ft 131 kts 281°
2026-05-05 16:50 63.75473 66.52867 1085 ft 130 kts 281°
2026-05-05 16:50 63.75732 66.50915 1080 ft 131 kts 281°
2026-05-05 16:50 63.75913 66.48937 1079 ft 127 kts 268°
2026-05-05 16:50 63.75946 66.46940 1077 ft 127 kts 267°
2026-05-05 16:51 63.76008 66.44956 1070 ft 127 kts 270°
2026-05-05 16:51 63.76089 66.42978 1069 ft 125 kts 266°
2026-05-05 16:51 63.75987 66.41072 1065 ft 121 kts 257°
2026-05-05 16:51 63.75868 66.39215 1071 ft 119 kts 257°
2026-05-05 16:52 63.75752 66.37366 1067 ft 118 kts 257°
2026-05-05 16:52 63.75600 66.35653 1052 ft 105 kts 240°
2026-05-05 16:52 63.75174 66.34396 1061 ft 100 kts 235°
2026-05-05 16:52 63.75174 66.32806 1069 ft 103 kts 274°
2026-05-05 16:53 63.75305 66.31206 1068 ft 104 kts 276°
2026-05-05 16:53 63.75457 66.29602 1062 ft 105 kts 275°
2026-05-05 16:53 63.75606 66.27993 1067 ft 105 kts 275°
2026-05-05 16:53 63.75753 66.26383 1065 ft 105 kts 275°
2026-05-05 16:54 63.75902 66.24772 1068 ft 104 kts 275°
2026-05-05 16:54 63.76048 66.23167 1068 ft 105 kts 275°
2026-05-05 16:54 63.76197 66.21529 1072 ft 107 kts 275°
2026-05-05 16:54 63.76347 66.19877 1073 ft 107 kts 275°
2026-05-05 16:55 63.76497 66.18220 1069 ft 108 kts 274°
2026-05-05 16:55 63.76644 66.16559 1074 ft 108 kts 274°
2026-05-05 16:55 63.76794 66.14888 1075 ft 109 kts 274°
2026-05-05 16:55 63.76944 66.13215 1079 ft 109 kts 275°
2026-05-05 16:56 63.77093 66.11564 1077 ft 108 kts 275°
2026-05-05 16:56 63.77244 66.09896 1074 ft 108 kts 274°
2026-05-05 16:56 63.77394 66.08225 1075 ft 109 kts 274°
2026-05-05 16:56 63.77544 66.06556 1077 ft 108 kts 275°
2026-05-05 16:57 63.77694 66.04889 1070 ft 108 kts 275°
2026-05-05 16:57 63.77842 66.03231 1070 ft 108 kts 274°
2026-05-05 16:57 63.77991 66.01570 1074 ft 108 kts 275°
2026-05-05 16:57 63.78140 65.99912 1075 ft 108 kts 274°
2026-05-05 16:58 63.78289 65.98219 1065 ft 112 kts 274°
2026-05-05 16:58 63.78445 65.96476 1061 ft 113 kts 275°
2026-05-05 16:58 63.78601 65.94725 1061 ft 113 kts 275°
2026-05-05 16:58 63.78755 65.93002 1059 ft 111 kts 274°
2026-05-05 16:59 63.78907 65.91287 1061 ft 111 kts 274°
2026-05-05 16:59 63.79059 65.89567 1059 ft 112 kts 274°
2026-05-05 16:59 63.79212 65.87851 1059 ft 111 kts 274°
2026-05-05 16:59 63.79364 65.86133 1062 ft 112 kts 274°
2026-05-05 17:00 63.79517 65.84401 1063 ft 114 kts 274°
2026-05-05 17:00 63.79675 65.82588 1073 ft 121 kts 274°
2026-05-05 17:00 63.79843 65.80688 1072 ft 124 kts 274°
2026-05-05 17:00 63.80009 65.78825 1070 ft 118 kts 274°
2026-05-05 17:01 63.80168 65.77025 1066 ft 115 kts 274°
2026-05-05 17:01 63.80323 65.75248 1063 ft 115 kts 274°
2026-05-05 17:01 63.80479 65.73475 1058 ft 115 kts 274°
2026-05-05 17:01 63.80744 65.71739 1055 ft 118 kts 283°
2026-05-05 17:02 63.81035 65.70040 1055 ft 117 kts 283°
2026-05-05 17:02 63.81324 65.68328 1050 ft 116 kts 282°
2026-05-05 17:02 63.81609 65.66624 1049 ft 115 kts 283°
2026-05-05 17:02 63.81893 65.64929 1051 ft 115 kts 283°
2026-05-05 17:03 63.82177 65.63227 1052 ft 116 kts 283°
2026-05-05 17:03 63.82462 65.61511 1051 ft 117 kts 282°
2026-05-05 17:03 63.82752 65.59767 1051 ft 119 kts 283°
2026-05-05 17:03 63.83044 65.58022 1051 ft 118 kts 283°
2026-05-05 17:04 63.83332 65.56290 1051 ft 117 kts 283°
2026-05-05 17:04 63.83618 65.54566 1052 ft 117 kts 283°
2026-05-05 17:04 63.83904 65.52844 1053 ft 117 kts 283°
2026-05-05 17:04 63.84190 65.51116 1051 ft 117 kts 283°
2026-05-05 17:05 63.84476 65.49390 1051 ft 117 kts 283°
2026-05-05 17:05 63.84760 65.47669 1047 ft 116 kts 283°
2026-05-05 17:05 63.85043 65.45952 1047 ft 116 kts 282°
2026-05-05 17:05 63.85327 65.44238 1052 ft 117 kts 283°
2026-05-05 17:06 63.85612 65.42509 1049 ft 118 kts 283°
2026-05-05 17:06 63.85898 65.40772 1054 ft 118 kts 283°
2026-05-05 17:06 63.86185 65.39031 1049 ft 118 kts 283°
2026-05-05 17:06 63.86472 65.37288 1054 ft 118 kts 283°
2026-05-05 17:07 63.86758 65.35552 1050 ft 118 kts 283°
2026-05-05 17:07 63.87039 65.33836 1042 ft 118 kts 283°
2026-05-05 17:07 63.87324 65.32103 1047 ft 117 kts 282°
2026-05-05 17:07 63.87608 65.30366 1050 ft 118 kts 283°
2026-05-05 17:08 63.87894 65.28616 1047 ft 118 kts 283°
2026-05-05 17:08 63.88183 65.26850 1047 ft 120 kts 283°
2026-05-05 17:08 63.88475 65.25065 1045 ft 120 kts 283°
2026-05-05 17:08 63.88766 65.23287 1043 ft 120 kts 283°
2026-05-05 17:09 63.89056 65.21511 1046 ft 120 kts 282°
2026-05-05 17:09 63.89260 65.19721 1043 ft 118 kts 275°
2026-05-05 17:09 63.89420 65.17856 971 ft 122 kts 274°
2026-05-05 17:09 63.89548 65.15970 973 ft 119 kts 273°
2026-05-05 17:10 63.89704 65.14134 980 ft 119 kts 275°
2026-05-05 17:10 63.89856 65.12274 961 ft 119 kts 272°
2026-05-05 17:10 63.89960 65.10416 953 ft 119 kts 266°
2026-05-05 17:10 63.90154 65.08585 880 ft 130 kts 302°
2026-05-05 17:11 63.91010 65.07722 726 ft 141 kts 352°
2026-05-05 17:11 63.91958 65.07445 757 ft 134 kts 351°
2026-05-05 17:11 63.92723 65.06671 595 ft 110 kts 284°
2026-05-05 17:11 63.92558 65.05421 390 ft 75 kts 240°
2026-05-05 17:12 63.92368 65.04298 231 ft 76 kts 244°
2026-05-05 17:12 63.92198 65.03233 107 ft 71 kts 242°
2026-05-05 17:12 63.92025 65.02251 104 ft 61 kts 245°
2026-05-05 17:12 63.91853 65.01518 103 ft 38 kts 242°
2026-05-05 17:13 63.91765 65.01299 102 ft 15 kts 174°
2026-05-05 17:13 63.91746 65.01463 102 ft 14 kts 78°
2026-05-05 17:13 63.91779 65.01748 92 ft 30 kts 69°
2026-05-05 17:13 63.91873 65.02202 98 ft 35 kts 73°
2026-05-05 17:14 63.91930 65.02750 94 ft 29 kts 116°
2026-05-05 17:14 63.91906 65.02916 95 ft 0 kts 22°